Location: D�derode
(51.8092°N, 10.1065°E)
Time: 06:44:05
(UTC+00:00)

Cosmos 773 Rocket - Pass Details

Date: 01 December 2020
Orbit: 746 x 776 km, 74.1° (Epoch: 23 January)

Event Time Altitude Azimuth Distance (km) Brightness Sun altitude
Rises 16:42:27 0° 194° (SSW) 3,229 7.7 -13.2°
Reaches altitude 10° 16:44:50 10° 191° (SSW) 2,311 6.9 -13.5°
Maximum altitude 16:50:02 67° 110° (ESE) 844 4.0 -14.3°
Enters shadow 16:54:46 13° 30° (NNE) 2,135 5.9 -15.0°
